ROMMA est une association bénévole à but non lucratif. Votre soutien est indispensable : ADHERER à ROMMA ou FAIRE un DON

Montélimar - (26, Drôme)

Basse vallée du Rhône (88 m)   Longitude: 04° 45' E   Latitude: 44° 32' N Station partenaire n°164
 

Détail journalier du     <<     >>

Température Precipitation Humidité Pression Vent Dir Rafale Dir. rafale Ensol.
Heure (°C) (mm) (%) (hPa) (km/h) (km/h) (min)
01:00 20.5067102000---0
02:00 19.3071102000---0
03:00 18.6073101900---0
04:00 17.2077101900---0
05:00 16.8078101900---0
06:00 16.2080101900---0
07:00 15.1081101900---0
08:00 15.4081101900---1
09:00 17.9076101900---60
10:00 20.4069101900---60
11:00 23.6059101900---60
12:00 26.4052101900---60
13:00 28.6044101800---60
14:00 31.1037101700---49
15:00 32.40361016010SSE56
16:00 33.303410153---19NO49
17:00 33.4033101510NNO23NNO60
18:00 33.303410147NNO19NNO22
19:00 32.403610141---15NNO0
20:00 30.7040101408NNO0
21:00 27.2048101500---0
22:00 26.2052101608NNO0
23:00 24.40581016016N0
minuit 23.2061101600---0

Graphique du 16-09-2019

 

Serveur OMMA